sat.trackr.live / text

‹ back to catalog

STARLINK-30351

NORAD 57738 · 2023-131G

PAYLOAD ACTIVE UNKNOWN

§ Identity

Operator
Country
US
Launch date
2023-09-01
Launch site
AFETR
Launch vehicle
Mass (kg)
RCS (m²)

Purposes: comms

External: N2YO · Heavens-Above · Gunter

§ Orbital elements

Epoch: 2026-05-25T03:45:50.949216Z

Period
94.27 min
Inclination
43.0018°
Eccentricity
0.0001605
Mean motion
15.27578955 rev/d
Perigee alt
482.0 km
Apogee alt
484.2 km
Semi-major
6,861.2 km
B*
2.8704e-5
RAAN
100.3945°
Arg perigee
267.7654°
Mean anomaly
92.3014°
Rev number
15,161

§ Raw data

STARLINK-303511 57738U 23131G   26145.15683969  .00000528  00000+0  28704-4 0  99942 57738  43.0018 100.3945 0001605 267.7654  92.3014 15.27578955151616

JSON: /api/v1/satellites/57738 · /tle

For live sub-satellite position, see the globe view (requires WebGL).

§ Visibility from observer

Set your observer location to see the next 7 days of passes ≥ 10°. The values pass through the URL so the page stays shareable.

No JS? Fill the form by hand. The geolocation button needs JavaScript.